Starlink 30238

operational
NORAD ID: 57296 Int'l Des: 2023-096 Owner: SPXS Country: US Constellation: starlink
LEOCIRCULAR

About Starlink 30238

Description loading...

Live Position

Loading 3D Globe...

Upcoming Passes

Altitude History

Altitude vs Time

uPlot chart will show altitude changes over time

Two-Line Element Set

1 57296U 23096G 25353.00002315 .00163774 00000-0 28597-2 0 9999
2 57296 42.9871 263.7553 0032330 190.1882 153.0826 15.48797298 5890
Epoch: Dec 19, 2025 • Age: 10 hours

Current Status

Altitude 434.0 km
Velocity 7.65 km/s
Sub-Earth Point 40.19°N, 92.55°E
Launch Date Jul 10, 2023
Age 2.4 years
Type internet

Technical Details

Classification Payload
Mass 730.00 kg
Dry Mass 700.00 kg
Total Mass 730.00 kg
Length 0.30 m
Diameter 4.10 m
Span 29.00 m
Shape Box + pan
Manufacturer SPXS
Bus Type Starlink V2M
Phase Status In Orbit
Owner/State SPXS/US

Large Constellations

Loading constellations...